EHI
4 3 1 2 2 1 0 0 0 0 0 0 0 0 0 0 0 0 0 0 0 0 0 0 0 0 0 1 3 2 1 0 0 0 0 0 0 0 0 0 0 0 0 0 0 0 0 0 0
2 2 1 1 1 0 0 0 0 0 0 0 0 0 0 0 0 0 0 0 0 0 0 0 0 0 0 1 2 2 1 0 0 0 1 1 1 1 0 0 0 0 0 0 0 0 0 0 0
1 2 1 1 0 0 0 0 0 0 0 0 0 0 0 0 0 0 0 0 0 0 0 0 0 0 0 1 1 1 0 0 1 1 2 2 2 1 0 0 0 0 0 0 0 0 0 0 0
2 2 1 0 0 0 0 0 0 0 0 0 0 0 0 0 0 0 0 0 0 0 0 0 0 0 0 0 0 1 1 1 2 3 3 3 2 1 0 0 0 0 0 0 0 0 0 0 0
3 3 1 0 0 0 0 0 0 0 0 0 0 0 0 0 0 0 0 0 0 0 0 1 1 1 1 0 0 1 2 3 3 3 3 3 2 0 0 0 0 0 0 0 0 0 0 0 0
3 2 1 0 0 0 0 0 0 0 0 0 0 0 0 0 0 0 0 0 0 0 0 1 2 2 2 2 1 2 3 3 3 3 3 3 2 1 0 0 0 0 0 0 0 0 0 0 0
1 1 0 0 0 0 0 0 0 0 0 0 0 0 0 0 0 0 0 0 0 0 0 0 1 2 2 3 2 2 3 3 2 3 3 3 3 3 2 1 1 1 0 0 0 0 0 0 0
0 0 0 0 0 0 0 0 0 0 0 0 0 0 0 0 0 0 0 0 0 1 1 1 1 1 1 1 1 2 3 2 2 2 3 3 4 4 4 3 2 2 1 1 0 0 0 0 1
0 0 0 0 0 0 0 0 0 0 0 0 0 0 1 1 1 1 0 0 0 1 2 2 1 0 0 0 0 1 2 2 2 3 4 4 4 4 4 3 3 3 2 2 1 0 0 1 2
0 0 0 0 0 0 0 0 0 0 0 0 0 0 1 2 2 1 0 0 0 1 1 2 1 0 0 0 0 1 2 3 3 3 4 4 3 3 3 3 3 3 3 2 2 1 1 1 2
0 0 0 0 0 0 0 0 0 0 0 0 0 1 2 3 3 1 0 0 0 0 1 2 2 2 1 0 0 2 4 3 2 3 4 4 3 3 3 3 3 3 3 3 4 3 2 3 3
0 0 0 0 0 0 0 0 0 0 0 0 0 1 2 2 2 1 0 0 0 0 1 2 3 3 2 1 1 3 4 3 2 3 3 3 3 3 3 3 3 3 3 3 4 3 3 3 3
0 0 0 0 0 0 0 0 0 0 0 0 1 1 1 1 1 0 0 0 0 0 1 3 3 3 3 2 1 2 2 1 1 1 2 3 3 3 3 3 3 3 3 3 3 4 4 3 3
0 0 0 0 0 0 0 0 0 0 0 1 2 1 0 0 0 1 1 1 0 1 2 3 3 3 3 2 1 1 1 0 0 0 1 3 3 3 3 4 3 3 3 3 4 5 5 4 4
0 0 0 0 0 0 0 0 0 0 0 1 1 1 0 0 0 1 2 2 1 1 3 3 3 3 3 2 2 2 2 0 0 0 1 2 3 3 4 4 4 3 3 4 5 7 6 5 4
0 0 0 0 0 0 0 0 0 0 0 1 1 1 0 0 0 1 3 3 3 3 3 3 3 3 3 2 2 2 1 1 1 0 1 3 4 4 5 5 4 3 3 4 6 7 6 4 4
0 0 0 0 0 0 0 0 0 1 1 2 3 2 1 0 0 1 2 3 3 3 3 4 3 3 4 3 2 1 1 2 2 1 2 4 6 6 7 7 5 4 4 5 6 6 5 4 4
0 0 0 0 0 0 0 0 1 1 1 3 5 5 2 1 0 1 2 3 2 2 3 4 5 6 6 5 1 0 1 2 3 2 4 5 6 6 7 8 7 5 5 6 6 5 4 4 5
0 0 0 0 0 0 0 0 1 2 2 4 7 7 4 2 1 1 3 3 1 1 3 5 7 9 9 6 3 1 1 1 3 4 6 6 5 6 7 8 8 7 6 6 6 5 4 4 4
0 0 0 0 0 0 0 0 1 2 2 4 8 9 6 4 3 3 4 3 1 1 4 7 10 11 10 7 4 3 2 1 2 5 6 6 5 6 7 9 9 8 7 7 7 7 6 4 4
0 0 0 0 0 0 0 0 0 1 2 5 8 8 8 7 7 6 6 5 3 3 5 7 10 11 11 9 6 5 5 4 5 6 5 5 5 6 8 9 9 9 8 8 9 9 8 7 5
0 0 0 0 0 0 0 0 0 0 2 6 7 7 8 10 10 10 11 10 8 6 5 6 8 10 12 12 11 10 9 8 8 8 7 5 5 5 8 9 10 9 9 9 10 11 10 9 9
0 0 0 0 0 0 0 0 0 0 2 5 7 7 8 10 10 11 14 15 12 9 7 7 9 11 13 14 15 16 14 12 12 12 11 8 6 6 7 9 10 10 10 10 11 12 12 11 10
0 0 0 0 0 0 0 0 0 0 0 2 6 8 8 10 10 10 14 16 15 12 10 9 10 12 12 14 17 19 18 16 16 16 15 12 9 8 9 11 11 12 12 12 13 13 13 11 9
0 0 1 0 0 0 0 0 0 0 0 1 4 7 8 9 8 8 11 15 15 13 11 12 12 12 11 12 15 19 19 18 18 18 16 12 9 9 12 13 13 13 13 13 14 13 12 10 9
0 0 0 0 0 0 0 0 0 0 0 0 2 5 7 6 6 6 9 12 14 13 12 13 14 14 13 13 15 18 18 16 16 18 15 10 8 10 13 14 15 14 14 14 14 12 11 11 11
0 0 0 0 0 0 0 0 0 0 1 1 3 6 7 7 7 7 8 11 14 14 15 16 16 16 14 13 15 16 16 15 14 16 14 10 9 11 13 14 15 16 16 17 16 13 12 12 13
0 0 0 0 0 0 0 0 0 1 2 3 6 8 9 10 11 10 9 12 14 15 17 19 20 18 15 14 15 15 15 15 14 15 15 14 13 13 13 14 16 17 19 21 20 16 14 14 14
0 0 0 0 0 0 0 0 0 0 2 5 9 11 13 14 13 12 12 13 15 16 18 22 24 22 21 19 19 19 17 15 14 14 16 18 17 15 14 15 17 18 19 22 21 17 16 16 15
0 0 0 0 0 0 0 0 0 0 1 6 11 14 14 15 15 14 14 16 17 17 19 25 27 25 25 25 25 24 21 16 12 12 16 20 19 17 15 16 18 19 20 21 20 16 15 16 15
Wind_Speed
12 10 6 5 4 5 11 9 7 7 6 8 8 7 8 10 9 9 6 6 6 6 7 8 8 9 9 9 9 9 9 10 10 10 11 11 12 12 12 14 13 14 14 15 15 14 14 14 14
10 8 6 4 2 8 10 8 10 9 8 7 7 8 9 10 9 8 6 6 5 6 6 8 9 8 9 8 8 9 9 9 9 10 10 11 11 12 12 13 13 13 14 14 14 14 14 14 14
8 7 5 1 8 9 9 9 10 9 6 4 6 7 7 8 7 6 7 5 5 6 7 9 8 8 7 8 8 8 8 9 9 9 10 10 11 11 11 12 12 12 13 13 14 14 14 13 13
6 6 2 6 13 12 10 8 8 8 7 6 6 8 8 7 5 7 8 6 6 7 8 10 8 8 7 7 8 8 8 8 8 9 9 10 9 9 10 11 11 12 12 13 13 13 13 13 12
6 3 5 10 12 11 9 7 6 6 6 7 7 10 9 7 8 9 7 6 6 7 7 9 8 8 8 7 7 7 7 7 8 8 8 9 8 9 9 10 11 11 11 12 12 12 12 11 11
4 1 5 10 11 9 8 6 7 8 10 8 8 10 9 7 7 7 7 5 6 6 7 9 9 8 8 7 7 7 6 7 8 8 8 8 8 9 10 10 11 11 11 11 11 10 10 10 10
2 4 8 10 10 9 7 5 6 7 8 7 5 8 8 7 6 6 6 5 6 6 6 6 7 7 8 8 7 7 7 8 8 8 8 7 8 9 10 10 10 11 10 10 10 10 9 9 9
2 2 8 8 8 9 8 6 6 6 8 7 4 6 8 8 7 7 7 6 6 5 5 5 6 5 6 7 7 7 7 8 8 7 7 8 9 9 9 9 10 10 10 9 9 9 9 8 8
2 3 8 8 7 9 8 7 7 6 8 6 5 7 10 11 9 8 7 6 5 5 4 4 5 5 4 5 7 6 7 7 6 7 7 5 4 6 7 10 10 9 9 9 8 8 8 8 8
0 6 10 8 7 9 8 7 7 7 8 7 9 10 12 10 9 8 7 6 6 5 5 4 4 3 4 4 4 3 4 5 4 4 5 4 4 4 5 10 9 9 8 9 8 8 8 6 5
4 7 9 8 8 9 9 8 6 7 7 7 9 11 11 10 8 7 6 6 5 5 4 4 3 3 3 3 2 2 2 3 4 5 4 3 3 3 4 4 6 6 7 5 8 7 4 3 3
6 8 7 8 8 8 8 8 7 5 7 7 8 11 11 9 7 6 6 4 4 4 4 4 3 3 2 2 2 2 2 3 3 4 3 3 2 2 3 2 3 3 3 3 3 2 3 3 3
8 8 8 9 8 8 8 8 6 6 6 7 9 10 9 8 7 6 5 4 4 4 4 3 3 3 2 2 1 2 2 3 3 3 3 2 2 3 3 2 2 2 2 3 3 3 3 3 3
9 9 9 9 9 8 8 7 5 7 8 9 9 9 8 7 6 5 5 4 4 4 3 4 3 3 3 2 2 2 2 2 2 2 3 2 2 2 2 3 2 2 2 2 2 3 3 3 3
10 11 9 8 7 7 7 6 6 8 9 10 9 8 8 7 6 5 5 4 4 4 3 4 4 4 3 2 2 2 2 2 2 2 2 2 2 2 2 2 2 2 2 2 2 2 2 3 3
9 7 7 7 6 6 6 6 8 9 10 10 9 8 8 7 6 5 5 4 4 4 4 3 3 4 4 2 1 1 1 2 1 1 2 2 2 2 1 1 2 2 1 2 2 2 2 2 2
8 6 7 8 6 5 4 5 9 9 9 9 9 9 8 8 7 6 6 5 5 4 4 4 3 3 4 3 2 2 2 1 1 1 1 2 2 2 1 1 2 2 2 1 1 2 1 2 2
7 7 7 6 7 6 5 4 8 9 9 9 9 9 8 8 8 8 7 6 5 5 5 5 4 4 4 3 3 2 2 1 1 1 1 1 1 1 1 2 2 1 2 1 1 2 1 1 1
6 6 6 6 5 6 5 4 6 9 9 9 9 9 9 9 8 8 7 6 6 6 6 6 5 4 3 3 2 2 2 1 1 1 2 1 1 1 1 1 2 1 2 1 2 2 3 2 2
8 8 7 6 5 5 4 5 5 8 10 9 9 10 10 9 9 9 8 7 7 7 7 7 6 5 5 3 2 1 1 1 1 1 2 1 1 1 1 1 1 1 2 2 2 2 1 1 2
9 8 6 5 6 6 5 6 7 8 8 8 9 9 10 10 10 10 9 9 8 8 8 6 6 6 5 4 3 2 2 2 2 2 1 1 1 1 1 0 0 1 1 2 2 2 2 1 1
10 7 6 6 7 5 6 4 6 8 8 10 10 10 11 10 10 10 10 9 9 8 8 8 7 7 6 6 4 4 2 1 1 1 1 1 1 1 1 1 1 1 1 1 2 2 2 2 1
6 6 7 8 8 6 6 6 4 7 7 9 10 10 11 11 10 10 10 10 9 8 8 8 8 7 7 6 5 5 3 2 2 1 2 1 1 1 1 1 1 1 1 1 1 1 2 2 2
7 7 7 8 9 8 6 7 3 5 7 7 9 10 11 11 11 10 10 9 8 8 8 8 8 7 7 7 6 5 4 3 2 2 2 2 1 1 1 1 1 2 1 2 2 2 3 2 2
12 10 7 8 8 6 5 7 2 2 4 5 7 9 10 11 11 11 11 10 9 9 8 8 8 8 8 7 6 6 5 4 4 3 2 2 1 1 1 1 1 1 1 1 2 2 1 2 2
14 14 9 7 6 6 7 7 2 3 3 4 5 7 9 10 11 11 12 11 10 9 9 9 9 8 8 7 6 5 5 4 3 3 2 2 1 0 0 0 1 1 1 1 1 1 1 1 1
13 14 11 10 8 7 6 5 4 4 5 5 7 8 9 10 10 11 12 11 10 10 9 9 9 8 8 7 6 5 4 3 2 3 3 2 1 1 1 1 1 1 1 1 1 1 1 1 1
11 11 9 10 9 9 7 7 4 6 6 6 7 8 8 9 10 11 11 11 10 10 9 9 9 8 8 8 7 6 5 5 4 3 2 1 1 1 1 1 1 1 1 2 2 2 1 1 1
12 12 11 9 9 10 7 4 2 3 5 6 7 7 8 8 9 9 10 10 10 10 10 9 9 9 8 7 7 6 5 4 4 3 3 2 1 1 2 1 1 1 1 1 2 2 2 1 1
11 12 13 10 9 10 9 3 5 3 3 5 6 7 7 7 8 8 9 10 10 10 10 10 9 9 8 7 7 6 5 5 4 3 2 2 1 2 2 2 1 1 2 1 2 2 2 1 1
Wind_Direction
171 177 200 228 219 82 67 63 71 81 72 63 61 56 59 41 36 70 86 83 80 81 85 96 87 86 87 87 89 88 92 96 97 97 101 108 111 111 113 118 118 120 119 119 119 120 121 121 122
169 179 220 235 66 80 70 67 72 68 89 99 78 69 70 64 57 88 102 87 89 87 86 83 86 87 88 89 89 87 90 94 96 97 100 107 109 110 112 117 119 121 121 121 120 119 121 120 121
174 219 259 41 58 63 80 80 87 86 85 87 78 56 53 64 75 90 95 104 98 90 88 84 84 86 90 92 91 88 90 93 94 97 101 106 110 113 116 120 123 124 123 122 122 120 121 121 120
205 216 211 73 74 66 82 96 101 102 86 72 88 82 75 54 69 94 107 112 101 90 90 88 81 85 89 93 95 94 95 95 95 99 103 106 110 115 118 123 126 126 125 122 122 121 122 122 121
235 241 99 83 78 79 81 88 93 84 78 83 88 94 87 75 86 105 113 110 100 93 90 93 83 84 87 90 95 96 98 99 98 102 104 105 107 110 119 124 125 125 126 127 125 123 124 124 124
234 221 83 85 88 89 85 89 89 88 93 94 96 101 89 95 102 107 108 105 102 99 96 100 101 89 86 87 89 90 92 96 101 104 104 104 107 109 115 121 125 125 127 127 128 128 127 127 129
328 59 78 90 100 98 94 94 91 97 95 88 98 102 110 113 108 112 111 111 101 97 97 102 108 110 108 95 90 92 94 98 101 103 104 105 108 111 116 121 125 126 129 130 132 132 129 130 131
321 97 93 90 96 95 107 104 89 94 92 95 96 105 122 127 128 126 116 109 99 94 93 98 97 99 112 113 100 92 96 98 99 98 99 105 117 121 122 130 125 127 131 133 135 135 133 130 130
254 91 80 80 93 104 122 117 104 98 101 94 76 84 111 128 137 133 129 125 115 107 101 97 97 98 94 97 107 115 115 109 119 118 114 125 122 120 129 109 121 131 134 134 134 134 134 137 138
73 71 69 71 88 110 124 119 122 126 118 114 105 102 118 135 141 138 135 130 125 117 108 96 87 89 96 91 101 105 109 110 106 94 106 109 101 98 104 113 122 130 137 138 133 136 149 173 152
73 78 86 92 99 115 125 124 126 129 125 130 134 133 139 144 146 143 137 132 124 120 113 105 97 85 83 95 96 91 96 103 107 97 95 94 103 117 122 132 138 143 154 153 143 157 160 149 136
99 89 95 102 110 119 123 123 118 107 85 108 132 141 147 153 153 150 142 137 130 127 124 118 114 104 81 68 92 103 106 104 102 109 106 107 99 96 102 116 120 132 133 130 134 140 135 142 154
113 104 104 109 115 117 121 118 114 113 109 117 131 145 153 157 155 152 147 148 141 139 137 128 120 109 106 98 57 93 90 93 106 99 102 96 110 104 100 103 102 111 122 144 148 150 145 152 157
112 114 114 120 123 130 127 127 134 125 133 137 144 155 162 163 163 156 156 153 152 152 147 142 143 132 127 123 103 76 94 104 94 100 98 99 102 103 114 125 122 113 114 110 144 149 156 160 154
132 129 125 126 136 138 149 136 136 138 146 148 156 161 167 172 174 173 167 165 164 153 148 149 149 140 138 139 130 115 102 96 92 95 97 109 120 121 129 125 136 113 118 133 155 157 160 169 163
159 161 143 134 153 162 210 124 130 150 160 159 163 167 175 179 184 181 177 177 172 158 151 154 153 143 144 140 128 105 87 91 91 101 102 107 113 132 152 139 122 125 140 149 153 163 154 146 147
183 172 145 141 164 171 201 132 134 161 172 171 173 176 182 182 189 187 190 186 179 171 162 159 162 156 147 141 136 122 105 82 86 86 91 104 123 141 164 132 114 153 145 163 183 118 141 134 128
176 168 159 154 160 188 193 156 147 171 185 183 183 184 186 188 191 188 192 191 183 177 176 175 175 167 164 158 153 147 123 117 101 93 82 90 125 139 153 146 133 158 144 146 127 126 125 133 143
179 179 167 148 150 195 202 199 178 178 195 194 192 191 192 194 187 185 188 191 189 188 185 183 183 167 176 179 185 169 152 136 116 110 88 94 100 111 148 129 128 153 138 143 152 158 153 160 155
189 187 175 159 162 215 213 219 196 188 201 202 198 195 195 191 187 188 190 190 192 188 187 184 181 177 185 174 181 167 111 121 102 75 86 83 92 98 151 123 166 135 140 145 152 171 185 178 197
199 202 193 180 174 203 231 213 199 191 197 202 205 203 201 196 191 188 192 194 192 191 189 187 182 179 185 183 181 162 163 180 154 136 128 93 80 80 40 124 215 182 202 149 171 190 206 213 192
202 201 207 196 209 201 229 230 187 192 195 199 201 202 202 198 194 191 191 192 195 191 186 186 183 183 183 187 190 187 189 179 133 146 122 114 96 101 170 207 197 221 200 165 208 189 227 244 226
207 186 203 212 229 233 217 255 180 180 204 203 197 199 199 195 192 191 191 188 189 186 186 183 182 184 185 188 187 197 203 191 174 160 132 162 136 186 209 193 198 202 207 198 233 213 240 245 257
168 173 190 214 231 230 220 250 208 185 214 205 194 195 194 192 190 190 188 183 183 183 184 181 177 185 188 190 192 200 203 203 195 196 195 200 175 177 179 200 199 207 212 206 219 222 218 246 260
196 200 204 207 215 221 195 242 233 181 205 210 197 190 187 188 188 185 184 182 184 184 182 180 178 184 188 190 193 197 203 205 208 220 210 233 205 192 149 211 206 217 199 210 215 198 230 228 223
208 221 233 234 225 200 187 233 184 162 177 196 191 182 182 184 186 186 185 183 184 184 183 181 180 183 185 188 189 195 200 208 204 209 227 225 251 278 56 198 193 195 202 194 183 194 197 202 219
208 224 240 251 251 250 205 209 198 181 190 185 182 179 180 183 185 186 184 183 183 184 185 184 181 183 184 182 176 180 189 201 201 198 213 216 221 193 165 184 182 183 178 184 192 166 204 175 210
236 221 222 236 242 241 222 220 213 181 194 188 184 183 180 179 181 182 181 181 183 183 182 182 182 182 181 179 181 176 179 186 197 208 203 205 205 203 184 189 175 174 169 178 190 174 161 158 149
202 213 227 232 243 248 238 209 156 187 197 197 188 181 179 183 178 179 180 180 182 180 176 177 178 179 179 178 176 173 171 175 182 190 187 183 189 190 189 182 177 165 176 180 180 187 163 170 157
222 219 219 225 227 242 258 205 119 161 181 185 181 176 174 178 175 175 176 177 180 181 178 175 176 176 174 167 166 164 163 164 171 168 167 171 180 189 175 168 162 156 144 156 180 183 160 170 160